TimeAKDT,TemperatureF,Dew PointF,Humidity,Sea Level PressureIn,VisibilityMPH,Wind Direction,Wind SpeedMPH,Gust SpeedMPH,PrecipitationIn,Events,Conditions,WindDirDegrees,DateUTC
12:16 AM,48.2,44.6,87,29.65,10.0,East,11.5,-,N/A,,Overcast,90,2013-05-13 08:16:00
12:36 AM,48.2,44.6,87,29.66,10.0,East,12.7,-,N/A,,Overcast,100,2013-05-13 08:36:00
12:56 AM,48.2,44.6,87,29.66,10.0,ESE,11.5,-,N/A,,Overcast,110,2013-05-13 08:56:00
1:16 AM,48.2,44.6,87,29.66,10.0,SE,5.8,16.1,N/A,,Overcast,130,2013-05-13 09:16:00
1:36 AM,48.2,44.6,87,29.66,10.0,East,9.2,-,N/A,,Overcast,80,2013-05-13 09:36:00
1:56 AM,48.2,44.6,87,29.66,10.0,East,10.4,18.4,N/A,,Overcast,80,2013-05-13 09:56:00
2:16 AM,48.2,44.6,87,29.66,10.0,East,11.5,-,N/A,,Overcast,80,2013-05-13 10:16:00
2:36 AM,48.2,44.6,87,29.66,10.0,ESE,9.2,-,N/A,,Overcast,110,2013-05-13 10:36:00
2:56 AM,48.2,44.6,87,29.66,7.0,East,12.7,-,N/A,,Overcast,90,2013-05-13 10:56:00
3:16 AM,48.2,44.6,87,29.65,10.0,East,15.0,-,N/A,,Mostly Cloudy,100,2013-05-13 11:16:00
3:36 AM,48.2,44.6,87,29.66,10.0,East,13.8,-,N/A,,Overcast,100,2013-05-13 11:36:00
3:56 AM,48.2,44.6,87,29.66,10.0,East,15.0,-,N/A,,Overcast,100,2013-05-13 11:56:00
4:16 AM,48.2,44.6,87,29.66,10.0,East,13.8,-,N/A,,Overcast,100,2013-05-13 12:16:00
4:36 AM,48.2,44.6,87,29.66,8.0,ESE,15.0,20.7,N/A,,Overcast,120,2013-05-13 12:36:00
4:56 AM,50.0,42.8,76,29.67,10.0,SE,13.8,18.4,N/A,,Overcast,130,2013-05-13 12:56:00
5:16 AM,48.2,44.6,87,29.69,7.0,Calm,Calm,-,N/A,,Overcast,0,2013-05-13 13:16:00
5:36 AM,48.2,44.6,87,29.69,10.0,SE,4.6,-,N/A,,Mostly Cloudy,130,2013-05-13 13:36:00
5:56 AM,48.2,42.8,82,29.70,10.0,SE,12.7,18.4,N/A,,Overcast,130,2013-05-13 13:56:00
6:16 AM,48.2,42.8,82,29.71,10.0,ESE,13.8,-,N/A,,Overcast,120,2013-05-13 14:16:00
6:36 AM,48.2,42.8,82,29.71,10.0,ESE,15.0,18.4,N/A,,Overcast,120,2013-05-13 14:36:00
6:56 AM,48.2,42.8,82,29.73,10.0,SE,12.7,20.7,N/A,,Overcast,140,2013-05-13 14:56:00
7:16 AM,48.2,42.8,82,29.74,10.0,SSE,8.1,17.3,N/A,,Overcast,160,2013-05-13 15:16:00
7:36 AM,48.2,42.8,82,29.75,10.0,SE,10.4,-,N/A,,Overcast,140,2013-05-13 15:36:00
7:56 AM,50.0,42.8,76,29.75,10.0,SSE,6.9,-,N/A,,Overcast,150,2013-05-13 15:56:00
8:16 AM,50.0,42.8,76,29.75,10.0,SE,9.2,-,N/A,,Overcast,140,2013-05-13 16:16:00
8:36 AM,50.0,42.8,76,29.75,10.0,SSE,6.9,-,N/A,,Overcast,150,2013-05-13 16:36:00
8:56 AM,50.0,42.8,76,29.75,10.0,ESE,8.1,-,N/A,,Overcast,120,2013-05-13 16:56:00
9:16 AM,51.8,42.8,71,29.74,10.0,ESE,11.5,-,N/A,,Overcast,120,2013-05-13 17:16:00
9:36 AM,51.8,42.8,71,29.74,10.0,SE,10.4,18.4,N/A,,Overcast,140,2013-05-13 17:36:00
9:56 AM,51.8,42.8,71,29.75,10.0,SE,11.5,17.3,N/A,,Overcast,130,2013-05-13 17:56:00
10:16 AM,51.8,42.8,71,29.74,10.0,SE,11.5,17.3,N/A,,Overcast,130,2013-05-13 18:16:00
10:36 AM,51.8,42.8,71,29.74,10.0,SE,11.5,-,N/A,,Overcast,130,2013-05-13 18:36:00
10:56 AM,53.6,42.8,67,29.74,10.0,SE,15.0,18.4,N/A,,Overcast,140,2013-05-13 18:56:00
11:16 AM,53.6,42.8,67,29.74,10.0,SE,13.8,18.4,N/A,,Overcast,140,2013-05-13 19:16:00
11:36 AM,53.6,42.8,67,29.74,10.0,SE,11.5,18.4,N/A,,Overcast,130,2013-05-13 19:36:00
12:16 PM,51.8,42.8,71,29.75,10.0,SE,12.7,20.7,N/A,,Mostly Cloudy,130,2013-05-13 20:16:00
12:36 PM,53.6,42.8,67,29.74,10.0,SE,15.0,20.7,N/A,,Mostly Cloudy,130,2013-05-13 20:36:00
12:56 PM,53.6,42.8,67,29.74,10.0,ESE,13.8,21.9,N/A,,Mostly Cloudy,120,2013-05-13 20:56:00
1:16 PM,53.6,42.8,67,29.74,10.0,SE,12.7,-,N/A,,Mostly Cloudy,130,2013-05-13 21:16:00
1:36 PM,53.6,42.8,67,29.74,10.0,SE,10.4,18.4,N/A,,Mostly Cloudy,130,2013-05-13 21:36:00
1:56 PM,53.6,42.8,67,29.74,10.0,SE,10.4,18.4,N/A,,Overcast,130,2013-05-13 21:56:00
2:16 PM,53.6,42.8,67,29.73,10.0,SE,12.7,18.4,N/A,,Overcast,130,2013-05-13 22:16:00
2:36 PM,53.6,42.8,67,29.73,10.0,SE,12.7,-,N/A,,Overcast,140,2013-05-13 22:36:00
2:56 PM,51.8,41.0,67,29.73,10.0,SE,11.5,18.4,N/A,,Overcast,130,2013-05-13 22:56:00
3:36 PM,51.8,42.8,71,29.73,10.0,SE,11.5,-,N/A,,Overcast,130,2013-05-13 23:36:00
3:56 PM,51.8,41.0,67,29.73,10.0,SE,9.2,-,N/A,,Overcast,140,2013-05-13 23:56:00
4:16 PM,51.8,42.8,71,29.72,10.0,ESE,12.7,18.4,N/A,,Overcast,120,2013-05-14 00:16:00
4:36 PM,51.8,41.0,67,29.72,10.0,SE,15.0,19.6,N/A,,Overcast,130,2013-05-14 00:36:00
4:56 PM,51.8,41.0,67,29.72,10.0,SE,13.8,18.4,N/A,,Mostly Cloudy,130,2013-05-14 00:56:00
5:16 PM,51.8,39.2,62,29.72,10.0,SE,15.0,20.7,N/A,,Mostly Cloudy,130,2013-05-14 01:16:00
5:36 PM,50.0,39.2,66,29.72,10.0,SE,11.5,20.7,N/A,,Mostly Cloudy,130,2013-05-14 01:36:00
5:56 PM,50.0,41.0,71,29.72,10.0,SE,12.7,21.9,N/A,,Overcast,130,2013-05-14 01:56:00
6:16 PM,50.0,41.0,71,29.72,10.0,ESE,10.4,-,N/A,,Overcast,120,2013-05-14 02:16:00
6:36 PM,50.0,41.0,71,29.72,10.0,ESE,12.7,17.3,N/A,,Overcast,120,2013-05-14 02:36:00
6:56 PM,50.0,41.0,71,29.72,10.0,ESE,13.8,-,N/A,,Overcast,120,2013-05-14 02:56:00
7:16 PM,50.0,41.0,71,29.72,10.0,SE,11.5,-,N/A,,Overcast,130,2013-05-14 03:16:00
7:36 PM,50.0,39.2,66,29.72,10.0,SE,13.8,19.6,N/A,,Overcast,130,2013-05-14 03:36:00
7:56 PM,48.2,41.0,76,29.73,10.0,SE,10.4,-,N/A,,Overcast,130,2013-05-14 03:56:00
8:16 PM,48.2,42.8,82,29.74,10.0,Calm,Calm,-,N/A,,Overcast,0,2013-05-14 04:16:00
8:36 PM,48.2,42.8,82,29.74,8.0,WSW,4.6,-,N/A,,Overcast,240,2013-05-14 04:36:00
8:56 PM,48.2,42.8,82,29.75,7.0,WSW,3.5,-,N/A,,Overcast,240,2013-05-14 04:56:00
9:16 PM,48.2,42.8,82,29.76,7.0,Calm,Calm,-,N/A,,Overcast,0,2013-05-14 05:16:00
9:36 PM,48.2,42.8,82,29.76,7.0,East,5.8,-,N/A,,Overcast,80,2013-05-14 05:36:00
9:56 PM,48.2,42.8,82,29.76,10.0,East,5.8,-,N/A,,Overcast,100,2013-05-14 05:56:00
10:16 PM,48.2,42.8,82,29.77,10.0,Calm,Calm,-,N/A,,Overcast,0,2013-05-14 06:16:00
10:36 PM,48.2,42.8,82,29.78,10.0,Calm,Calm,-,N/A,,Overcast,0,2013-05-14 06:36:00
10:56 PM,48.2,42.8,82,29.79,10.0,Calm,Calm,-,N/A,,Overcast,0,2013-05-14 06:56:00
11:16 PM,48.2,42.8,82,29.79,10.0,Calm,Calm,-,N/A,,Overcast,0,2013-05-14 07:16:00
11:36 PM,48.2,42.8,82,29.80,10.0,Calm,Calm,-,N/A,,Overcast,0,2013-05-14 07:36:00
11:56 PM,48.2,42.8,82,29.80,10.0,East,3.5,-,N/A,,Overcast,80,2013-05-14 07:56:00